2016-11-17 00:09:48 r, 17.11m,0000000012Hz,0000038457c,0000000.083s, 016.7C,00002191
2016-11-17 00:19:48 r, 17.45m,0000000009Hz,0000052624c,0000000.114s, 016.7C,00002191
2016-11-17 00:29:48 r, 17.39m,0000000009Hz,0000049265c,0000000.107s, 016.7C,00002191
2016-11-17 00:39:48 r, 17.14m,0000000011Hz,0000039387c,0000000.085s, 016.4C,00002191
2016-11-17 00:49:48 r, 17.48m,0000000008Hz,0000053995c,0000000.117s, 016.1C,00002191
2016-11-17 00:59:48 r, 17.34m,0000000009Hz,0000047262c,0000000.103s, 016.1C,00002191
2016-11-17 01:09:48 r, 16.88m,0000000015Hz,0000030983c,0000000.067s, 016.1C,00002191
2016-11-17 01:19:48 r, 16.77m,0000000020Hz,0000027973c,0000000.061s, 016.1C,00002191
2016-11-17 01:29:48 r, 17.19m,0000000011Hz,0000041456c,0000000.090s, 016.1C,00002191
2016-11-17 01:39:48 r, 16.52m,0000000021Hz,0000022365c,0000000.049s, 016.4C,00002191
2016-11-17 01:49:47 r, 17.05m,0000000013Hz,0000036234c,0000000.079s, 016.7C,00002191
2016-11-17 01:59:47 r, 16.40m,0000000023Hz,0000019971c,0000000.043s, 016.7C,00002191
2016-11-17 02:09:48 r, 16.76m,0000000016Hz,0000027654c,0000000.060s, 016.7C,00002191
2016-11-17 02:19:47 r, 17.47m,0000000009Hz,0000053633c,0000000.116s, 017.0C,00002191
2016-11-17 02:29:49 r, 17.62m,0000000008Hz,0000061153c,0000000.133s, 017.0C,00002191
2016-11-17 02:39:48 r, 18.04m,0000000005Hz,0000090620c,0000000.197s, 017.0C,00002191
2016-11-17 02:49:47 r, 17.82m,0000000006Hz,0000074032c,0000000.161s, 017.4C,00002191
2016-11-17 02:59:48 r, 17.93m,0000000006Hz,0000081419c,0000000.177s, 017.4C,00002191
2016-11-17 03:09:48 r, 18.00m,0000000005Hz,0000087415c,0000000.190s, 017.4C,00002191
2016-11-17 03:19:48 r, 18.06m,0000000005Hz,0000091759c,0000000.199s, 017.4C,00002191
2016-11-17 03:29:48 r, 17.86m,0000000006Hz,0000076409c,0000000.166s, 017.4C,00002191
2016-11-17 03:39:48 r, 17.73m,0000000007Hz,0000068026c,0000000.148s, 017.4C,00002191
2016-11-17 03:49:48 r, 16.63m,0000000019Hz,0000024605c,0000000.053s, 017.0C,00002191
2016-11-17 03:59:48 r, 17.02m,0000000013Hz,0000035520c,0000000.077s, 017.0C,00002191
2016-11-17 04:09:48 r, 16.79m,0000000016Hz,0000028480c,0000000.062s, 016.7C,00002191
2016-11-17 04:19:48 r, 17.15m,0000000012Hz,0000039820c,0000000.086s, 016.7C,00002191
2016-11-17 04:29:48 r, 17.49m,0000000009Hz,0000054775c,0000000.119s, 016.7C,00002191
2016-11-17 04:39:48 r, 17.50m,0000000008Hz,0000054887c,0000000.119s, 016.7C,00002191
2016-11-17 04:49:48 r, 17.44m,0000000009Hz,0000051854c,0000000.113s, 016.7C,00002191
2016-11-17 04:59:47 r, 17.56m,0000000008Hz,0000057969c,0000000.126s, 016.7C,00002191
2016-11-17 05:09:48 r, 18.00m,0000000005Hz,0000087163c,0000000.189s, 016.7C,00002191
2016-11-17 05:19:48 r, 18.04m,0000000005Hz,0000090319c,0000000.196s, 016.4C,00002191
2016-11-17 05:29:48 r, 17.38m,0000000009Hz,0000049033c,0000000.106s, 016.4C,00002191
2016-11-17 05:39:47 r, 17.83m,0000000006Hz,0000074493c,0000000.162s, 016.4C,00002191
2016-11-17 05:49:47 r, 17.69m,0000000007Hz,0000065425c,0000000.142s, 016.4C,00002191
2016-11-17 05:59:48 r, 17.78m,0000000006Hz,0000071124c,0000000.154s, 016.1C,00002191
2016-11-17 06:09:48 r, 17.81m,0000000006Hz,0000073043c,0000000.159s, 016.1C,00002191
2016-11-17 06:19:48 r, 17.49m,0000000008Hz,0000054225c,0000000.118s, 016.1C,00002191
2016-11-17 06:29:48 r, 17.64m,0000000007Hz,0000062394c,0000000.135s, 015.7C,00002191
2016-11-17 06:39:48 r, 17.30m,0000000010Hz,0000045750c,0000000.099s, 015.7C,00002191
2016-11-17 06:49:48 r, 16.47m,0000000022Hz,0000021186c,0000000.046s, 015.7C,00002191
2016-11-17 06:59:48 r, 14.83m,0000000097Hz,0000004725c,0000000.010s, 015.4C,00002191
2016-11-17 07:09:48 r, 12.89m,0000000589Hz,0000000000c,0000000.000s, 014.8C,00002191
2016-11-17 07:19:48 r, 10.97m,0000003451Hz,0000000000c,0000000.000s, 014.5C,00002191
2016-11-17 07:29:48 r, 09.26m,0000016739Hz,0000000000c,0000000.000s, 014.1C,00002191
2016-11-17 07:39:48 r, 07.98m,0000054624Hz,0000000000c,0000000.000s, 013.8C,00002191
2016-11-17 07:49:48 r, 07.40m,0000093130Hz,0000000000c,0000000.000s, 013.5C,00002191
2016-11-17 07:59:48 r, 06.86m,0000152055Hz,0000000000c,0000000.000s, 013.5C,00002191
2016-11-17 08:09:47 r, 06.23m,0000273336Hz,0000000000c,0000000.000s, 013.8C,00002191
2016-11-17 08:19:48 r, 06.11m,0000305317Hz,0000000000c,0000000.000s, 014.1C,00002191
2016-11-17 08:29:48 r, 00.00m,0000462132Hz,0000000000c,0000000.000s, 013.8C,00002191
2016-11-17 08:39:48 r, 00.00m,0000597335Hz,0000000000c,0000000.000s, 013.8C,00002191
2016-11-17 08:49:48 r, 00.00m,0000597221Hz,0000000000c,0000000.000s, 013.8C,00002191
2016-11-17 08:59:48 r, 00.00m,0000597273Hz,0000000000c,0000000.000s, 014.1C,00002191
2016-11-17 09:09:48 r, 00.00m,0000597205Hz,0000000000c,0000000.000s, 014.1C,00002191
2016-11-17 09:19:48 r, 00.00m,0000597242Hz,0000000000c,0000000.000s, 014.1C,00002191
2016-11-17 09:29:48 r, 00.00m,0000597144Hz,0000000000c,0000000.000s, 014.5C,00002191
2016-11-17 09:39:48 r, 00.00m,0000597096Hz,0000000000c,0000000.000s, 015.1C,00002191
2016-11-17 09:49:48 r, 00.00m,0000597055Hz,0000000000c,0000000.000s, 016.4C,00002191
2016-11-17 09:59:48 r, 00.00m,0000596943Hz,0000000000c,0000000.000s, 017.0C,00002191
2016-11-17 10:09:48 r, 00.00m,0000596765Hz,0000000000c,0000000.000s, 017.4C,00002191
2016-11-17 10:19:48 r, 00.00m,0000596899Hz,0000000000c,0000000.000s, 017.4C,00002191
2016-11-17 10:29:48 r, 00.00m,0000596821Hz,0000000000c,0000000.000s, 017.7C,00002191
2016-11-17 10:39:47 r, 00.00m,0000596872Hz,0000000000c,0000000.000s, 017.7C,00002191
2016-11-17 10:49:47 r, 00.00m,0000596816Hz,0000000000c,0000000.000s, 017.7C,00002191
2016-11-17 10:59:48 r, 00.00m,0000596878Hz,0000000000c,0000000.000s, 018.0C,00002191
2016-11-17 11:09:47 r, 00.00m,0000596758Hz,0000000000c,0000000.000s, 018.0C,00002191
2016-11-17 11:19:48 r, 00.00m,0000596752Hz,0000000000c,0000000.000s, 018.3C,00002191
2016-11-17 11:29:48 r, 00.00m,0000596730Hz,0000000000c,0000000.000s, 018.3C,00002191
2016-11-17 11:39:48 r, 00.00m,0000596771Hz,0000000000c,0000000.000s, 019.0C,00002191
2016-11-17 11:49:48 r, 00.00m,0000596755Hz,0000000000c,0000000.000s, 019.0C,00002191
2016-11-17 11:59:48 r, 00.00m,0000596836Hz,0000000000c,0000000.000s, 018.6C,00002191
2016-11-17 12:09:48 r, 00.00m,0000596870Hz,0000000000c,0000000.000s, 018.0C,00002191
2016-11-17 12:19:47 r, 00.00m,0000596761Hz,0000000000c,0000000.000s, 017.7C,00002191
2016-11-17 12:29:48 r, 00.00m,0000596864Hz,0000000000c,0000000.000s, 018.0C,00002191
2016-11-17 12:39:48 r, 00.00m,0000596793Hz,0000000000c,0000000.000s, 018.3C,00002191
2016-11-17 12:49:48 r, 00.00m,0000596715Hz,0000000000c,0000000.000s, 018.6C,00002191
2016-11-17 12:59:48 r, 00.00m,0000596629Hz,0000000000c,0000000.000s, 018.6C,00002191
2016-11-17 13:09:48 r, 00.00m,0000596745Hz,0000000000c,0000000.000s, 019.0C,00002191
2016-11-17 13:19:48 r, 00.00m,0000596669Hz,0000000000c,0000000.000s, 019.0C,00002191
2016-11-17 13:29:48 r, 00.00m,0000596656Hz,0000000000c,0000000.000s, 018.6C,00002191
2016-11-17 13:39:48 r, 00.00m,0000596641Hz,0000000000c,0000000.000s, 018.6C,00002191
2016-11-17 13:49:47 r, 00.00m,0000596674Hz,0000000000c,0000000.000s, 018.6C,00002191
2016-11-17 13:59:48 r, 00.00m,0000596741Hz,0000000000c,0000000.000s, 018.3C,00002191
2016-11-17 14:09:48 r, 00.00m,0000596761Hz,0000000000c,0000000.000s, 018.0C,00002191
2016-11-17 14:19:48 r, 00.00m,0000596873Hz,0000000000c,0000000.000s, 017.7C,00002191
2016-11-17 14:29:48 r, 00.00m,0000596876Hz,0000000000c,0000000.000s, 017.7C,00002191
2016-11-17 14:39:48 r, 00.00m,0000596938Hz,0000000000c,0000000.000s, 017.4C,00002191
2016-11-17 14:49:48 r, 00.00m,0000596882Hz,0000000000c,0000000.000s, 017.4C,00002191
2016-11-17 14:59:48 r, 00.00m,0000596901Hz,0000000000c,0000000.000s, 017.0C,00002191
2016-11-17 15:09:48 r, 00.00m,0000596951Hz,0000000000c,0000000.000s, 016.7C,00002191
2016-11-17 15:19:48 r, 00.00m,0000596882Hz,0000000000c,0000000.000s, 016.7C,00002191
2016-11-17 15:29:48 r, 00.00m,0000596965Hz,0000000000c,0000000.000s, 016.4C,00002191
2016-11-17 15:39:47 r, 00.00m,0000596978Hz,0000000000c,0000000.000s, 016.4C,00002191
2016-11-17 15:49:48 r, 00.00m,0000597033Hz,0000000000c,0000000.000s, 016.1C,00002191
2016-11-17 15:59:48 r, 00.00m,0000597116Hz,0000000000c,0000000.000s, 015.7C,00002191
2016-11-17 16:09:48 r, 00.00m,0000464503Hz,0000000000c,0000000.000s, 015.4C,00002191
2016-11-17 16:19:48 r, 06.24m,0000271978Hz,0000000000c,0000000.000s, 015.4C,00002191
2016-11-17 16:29:48 r, 06.67m,0000181566Hz,0000000000c,0000000.000s, 015.1C,00002191
2016-11-17 16:39:48 r, 07.61m,0000076390Hz,0000000000c,0000000.000s, 015.1C,00002191
2016-11-17 16:49:47 r, 08.47m,0000034563Hz,0000000000c,0000000.000s, 014.8C,00002191
2016-11-17 16:59:48 r, 09.98m,0000008624Hz,0000000000c,0000000.000s, 014.8C,00002191
2016-11-17 17:09:48 r, 11.94m,0000001419Hz,0000000000c,0000000.000s, 014.8C,00002191
2016-11-17 17:19:47 r, 13.93m,0000000227Hz,0000000000c,0000000.000s, 014.8C,00002191
2016-11-17 17:29:48 r, 15.64m,0000000046Hz,0000009929c,0000000.022s, 014.8C,00002191
2016-11-17 17:39:48 r, 17.31m,0000000010Hz,0000046030c,0000000.100s, 014.8C,00002191
2016-11-17 17:49:48 r, 18.55m,0000000003Hz,0000144974c,0000000.315s, 014.8C,00002191
2016-11-17 17:59:48 r, 19.24m,0000000002Hz,0000270456c,0000000.587s, 014.8C,00002191
2016-11-17 18:09:48 r, 19.60m,0000000001Hz,0000377258c,0000000.819s, 014.8C,00002191
2016-11-17 18:19:48 r, 19.50m,0000000001Hz,0000343559c,0000000.746s, 014.8C,00002191
2016-11-17 18:29:48 r, 19.65m,0000000001Hz,0000395423c,0000000.858s, 014.5C,00002191
2016-11-17 18:39:48 r, 19.58m,0000000001Hz,0000369509c,0000000.802s, 014.5C,00002191
2016-11-17 18:49:48 r, 19.58m,0000000001Hz,0000368601c,0000000.800s, 014.5C,00002191
2016-11-17 18:59:48 r, 19.47m,0000000001Hz,0000334889c,0000000.727s, 014.1C,00002191
2016-11-17 19:09:48 r, 19.67m,0000000001Hz,0000403416c,0000000.875s, 014.1C,00002191
2016-11-17 19:19:48 r, 19.70m,0000000001Hz,0000414734c,0000000.900s, 014.1C,00002191
2016-11-17 19:29:47 r, 19.63m,0000000001Hz,0000386781c,0000000.839s, 013.8C,00002191
2016-11-17 19:39:48 r, 19.67m,0000000001Hz,0000402213c,0000000.873s, 013.8C,00002191
2016-11-17 19:49:48 r, 19.70m,0000000001Hz,0000410027c,0000000.890s, 013.8C,00002191
2016-11-17 19:59:47 r, 19.78m,0000000001Hz,0000442669c,0000000.961s, 013.8C,00002191
2016-11-17 20:09:48 r, 19.59m,0000000002Hz,0000374666c,0000000.813s, 013.8C,00002191
2016-11-17 20:19:48 r, 19.46m,0000000002Hz,0000333262c,0000000.723s, 013.5C,00002191
2016-11-17 20:29:48 r, 19.40m,0000000001Hz,0000315090c,0000000.684s, 013.5C,00002191
2016-11-17 20:39:48 r, 19.42m,0000000001Hz,0000318759c,0000000.692s, 013.5C,00002191
2016-11-17 20:49:48 r, 19.38m,0000000002Hz,0000308084c,0000000.669s, 013.5C,00002191
2016-11-17 20:59:48 r, 19.25m,0000000002Hz,0000273517c,0000000.594s, 013.2C,00002191
2016-11-17 21:09:47 r, 19.25m,0000000002Hz,0000272792c,0000000.592s, 013.2C,00002191
2016-11-17 21:19:48 r, 19.19m,0000000002Hz,0000257400c,0000000.559s, 013.2C,00002191
2016-11-17 21:29:48 r, 18.92m,0000000002Hz,0000201659c,0000000.438s, 012.8C,00002191
2016-11-17 21:39:47 r, 18.79m,0000000002Hz,0000178559c,0000000.387s, 012.8C,00002191
2016-11-17 21:49:48 r, 18.64m,0000000003Hz,0000157157c,0000000.341s, 012.8C,00002191
2016-11-17 21:59:48 r, 18.66m,0000000003Hz,0000160251c,0000000.348s, 012.8C,00002191
2016-11-17 22:09:48 r, 18.61m,0000000003Hz,0000151620c,0000000.329s, 012.8C,00002191
2016-11-17 22:19:48 r, 18.73m,0000000003Hz,0000168022c,0000000.365s, 012.8C,00002191
2016-11-17 22:29:48 r, 18.21m,0000000004Hz,0000105686c,0000000.229s, 012.8C,00002191
2016-11-17 22:39:48 r, 18.33m,0000000004Hz,0000118115c,0000000.256s, 012.8C,00002191
2016-11-17 22:49:48 r, 18.40m,0000000004Hz,0000125783c,0000000.273s, 012.8C,00002191
2016-11-17 22:59:48 r, 18.22m,0000000005Hz,0000106351c,0000000.231s, 012.8C,00002191
2016-11-17 23:09:48 r, 18.13m,0000000004Hz,0000097871c,0000000.212s, 012.8C,00002191
2016-11-17 23:19:47 r, 18.15m,0000000004Hz,0000100033c,0000000.217s, 012.8C,00002191
2016-11-17 23:29:47 r, 18.11m,0000000005Hz,0000095752c,0000000.208s, 012.8C,00002191
2016-11-17 23:39:48 r, 17.99m,0000000006Hz,0000086168c,0000000.187s, 012.8C,00002191
2016-11-17 23:49:47 r, 17.96m,0000000005Hz,0000083462c,0000000.181s, 012.8C,00002191
2016-11-17 23:59:48 r, 17.94m,0000000006Hz,0000082471c,0000000.179s, 012.8C,00002191
